contact:dominique.lefevre@mio.osupytheas.fr, maurice.libes@osupytheas.fr, didier.mallarino@osupytheas.fr
Project:EMSO http://www.emso-fr.org/EMSO-France
Depth: 2436.0 m
Title:EMSO Ligure Ouest : Data MII capteur MICROCAT
DateTime_Computer,Latitude,Longitude,Temperature,Conductivity,Pressure,DateTime_Instrument
DateTime_Computer,Latitude,Longitude,degC,S m-1,dbar,DateTime_Instrument
2021-11-09T00:02:07Z,42.805,6.029,13.2992,4.60016,2470.437,2021-11-09T02:03:33Z
2021-11-09T00:05:11Z,42.805,6.029,13.2996,4.60013,2470.427,2021-11-09T02:06:36Z
2021-11-09T00:08:14Z,42.805,6.029,13.2995,4.60014,2470.427,2021-11-09T02:09:39Z
2021-11-09T00:11:17Z,42.805,6.029,13.2991,4.60017,2470.413,2021-11-09T02:12:42Z
2021-11-09T00:14:20Z,42.805,6.029,13.2994,4.60014,2470.427,2021-11-09T02:15:45Z
2021-11-09T00:17:23Z,42.805,6.029,13.2999,4.60013,2470.39,2021-11-09T02:18:48Z
2021-11-09T00:20:26Z,42.805,6.029,13.2994,4.60014,2470.427,2021-11-09T02:21:52Z
2021-11-09T00:23:29Z,42.805,6.029,13.2995,4.60014,2470.437,2021-11-09T02:24:55Z
2021-11-09T00:26:32Z,42.805,6.029,13.2996,4.60014,2470.413,2021-11-09T02:27:58Z
2021-11-09T00:29:36Z,42.805,6.029,13.2996,4.60014,2470.437,2021-11-09T02:31:01Z
2021-11-09T00:32:39Z,42.805,6.029,13.2996,4.60014,2470.404,2021-11-09T02:34:04Z
2021-11-09T00:35:42Z,42.805,6.029,13.2998,4.60014,2470.427,2021-11-09T02:37:07Z
2021-11-09T00:38:45Z,42.805,6.029,13.2997,4.60014,2470.404,2021-11-09T02:40:10Z
2021-11-09T00:41:48Z,42.805,6.029,13.2992,4.60019,2470.413,2021-11-09T02:43:13Z
2021-11-09T00:44:51Z,42.805,6.029,13.2991,4.60014,2470.404,2021-11-09T02:46:17Z
2021-11-09T00:47:54Z,42.805,6.029,13.2993,4.60014,2470.427,2021-11-09T02:49:20Z
2021-11-09T00:50:57Z,42.805,6.029,13.2997,4.60014,2470.45,2021-11-09T02:52:23Z
2021-11-09T00:54:00Z,42.805,6.029,13.2994,4.60014,2470.413,2021-11-09T02:55:26Z
2021-11-09T00:57:04Z,42.805,6.029,13.2995,4.60013,2470.427,2021-11-09T02:58:29Z
2021-11-09T01:00:07Z,42.805,6.029,13.2996,4.60011,2470.39,2021-11-09T03:01:32Z
2021-11-09T01:03:10Z,42.805,6.029,13.2996,4.60012,2470.39,2021-11-09T03:04:35Z
2021-11-09T01:06:13Z,42.805,6.029,13.2993,4.60013,2470.413,2021-11-09T03:07:38Z
2021-11-09T01:09:16Z,42.805,6.029,13.2994,4.60021,2470.404,2021-11-09T03:10:42Z
2021-11-09T01:12:19Z,42.805,6.029,13.2993,4.60013,2470.404,2021-11-09T03:13:45Z
2021-11-09T01:15:22Z,42.805,6.029,13.2991,4.60014,2470.427,2021-11-09T03:16:48Z
2021-11-09T01:18:25Z,42.805,6.029,13.2996,4.60012,2470.39,2021-11-09T03:19:51Z
2021-11-09T01:21:29Z,42.805,6.029,13.2998,4.60014,2470.413,2021-11-09T03:22:54Z
2021-11-09T01:24:32Z,42.805,6.029,13.3000,4.60012,2470.39,2021-11-09T03:25:57Z
2021-11-09T01:27:35Z,42.805,6.029,13.2996,4.60013,2470.404,2021-11-09T03:29:00Z
2021-11-09T01:30:38Z,42.805,6.029,13.2994,4.60011,2470.404,2021-11-09T03:32:03Z
2021-11-09T01:33:41Z,42.805,6.029,13.2993,4.60012,2470.38,2021-11-09T03:35:06Z
2021-11-09T01:36:44Z,42.805,6.029,13.2991,4.60029,2470.39,2021-11-09T03:38:10Z
2021-11-09T01:39:47Z,42.805,6.029,13.2994,4.60016,2470.366,2021-11-09T03:41:13Z
2021-11-09T01:42:50Z,42.805,6.029,13.2998,4.60015,2470.39,2021-11-09T03:44:16Z
2021-11-09T01:45:53Z,42.805,6.029,13.2995,4.60013,2470.39,2021-11-09T03:47:19Z
2021-11-09T01:48:57Z,42.805,6.029,13.2996,4.60012,2470.404,2021-11-09T03:50:22Z
2021-11-09T01:52:00Z,42.805,6.029,13.2992,4.60014,2470.39,2021-11-09T03:53:25Z
2021-11-09T01:55:03Z,42.805,6.029,13.2997,4.60014,2470.366,2021-11-09T03:56:28Z
2021-11-09T01:58:06Z,42.805,6.029,13.2991,4.60011,2470.366,2021-11-09T03:59:31Z
2021-11-09T02:01:09Z,42.805,6.029,13.2994,4.60013,2470.366,2021-11-09T04:02:35Z
2021-11-09T02:04:12Z,42.805,6.029,13.2993,4.60011,2470.39,2021-11-09T04:05:38Z
2021-11-09T02:07:15Z,42.805,6.029,13.2996,4.60014,2470.366,2021-11-09T04:08:41Z
2021-11-09T02:10:18Z,42.805,6.029,13.2996,4.60011,2470.366,2021-11-09T04:11:44Z
2021-11-09T02:13:22Z,42.805,6.029,13.2995,4.60013,2470.39,2021-11-09T04:14:47Z
2021-11-09T02:16:25Z,42.805,6.029,13.2994,4.60013,2470.343,2021-11-09T04:17:50Z
2021-11-09T02:19:28Z,42.805,6.029,13.2993,4.60013,2470.357,2021-11-09T04:20:53Z
2021-11-09T02:22:31Z,42.805,6.029,13.2994,4.60011,2470.366,2021-11-09T04:23:56Z
2021-11-09T02:25:34Z,42.805,6.029,13.2991,4.60016,2470.38,2021-11-09T04:26:59Z
2021-11-09T02:28:37Z,42.805,6.029,13.2995,4.60011,2470.38,2021-11-09T04:30:03Z
2021-11-09T02:31:40Z,42.805,6.029,13.2996,4.60011,2470.39,2021-11-09T04:33:06Z
2021-11-09T02:34:43Z,42.805,6.029,13.2996,4.60011,2470.38,2021-11-09T04:36:09Z
2021-11-09T02:37:46Z,42.805,6.029,13.2990,4.60011,2470.343,2021-11-09T04:39:12Z
2021-11-09T02:40:50Z,42.805,6.029,13.2993,4.60014,2470.366,2021-11-09T04:42:15Z
2021-11-09T02:43:53Z,42.805,6.029,13.2998,4.60019,2470.366,2021-11-09T04:45:18Z
2021-11-09T02:46:56Z,42.805,6.029,13.2994,4.60013,2470.366,2021-11-09T04:48:21Z
2021-11-09T02:49:59Z,42.805,6.029,13.2993,4.60014,2470.366,2021-11-09T04:51:24Z
2021-11-09T02:53:02Z,42.805,6.029,13.2998,4.60013,2470.366,2021-11-09T04:54:28Z
2021-11-09T02:56:05Z,42.805,6.029,13.2993,4.60011,2470.353,2021-11-09T04:57:31Z
2021-11-09T02:59:08Z,42.805,6.029,13.2996,4.60011,2470.357,2021-11-09T05:00:34Z
2021-11-09T03:02:11Z,42.805,6.029,13.2993,4.60011,2470.343,2021-11-09T05:03:37Z
2021-11-09T03:05:14Z,42.805,6.029,13.2994,4.60016,2470.343,2021-11-09T05:06:40Z
2021-11-09T03:08:18Z,42.805,6.029,13.2991,4.60015,2470.38,2021-11-09T05:09:43Z
2021-11-09T03:11:21Z,42.805,6.029,13.2996,4.60014,2470.357,2021-11-09T05:12:46Z
2021-11-09T03:14:24Z,42.805,6.029,13.2994,4.60014,2470.357,2021-11-09T05:15:49Z
2021-11-09T03:17:27Z,42.805,6.029,13.2993,4.60019,2470.39,2021-11-09T05:18:52Z
2021-11-09T03:20:30Z,42.805,6.029,13.2993,4.60014,2470.366,2021-11-09T05:21:56Z
2021-11-09T03:23:33Z,42.805,6.029,13.2994,4.60014,2470.343,2021-11-09T05:24:59Z
2021-11-09T03:26:36Z,42.805,6.029,13.2996,4.60014,2470.38,2021-11-09T05:28:02Z
2021-11-09T03:29:39Z,42.805,6.029,13.2990,4.60016,2470.357,2021-11-09T05:31:05Z
2021-11-09T03:32:43Z,42.805,6.029,13.2991,4.60016,2470.366,2021-11-09T05:34:08Z
2021-11-09T03:35:46Z,42.805,6.029,13.2991,4.60015,2470.366,2021-11-09T05:37:11Z
2021-11-09T03:38:49Z,42.805,6.029,13.2994,4.60014,2470.343,2021-11-09T05:40:14Z
2021-11-09T03:41:52Z,42.805,6.029,13.2991,4.60016,2470.334,2021-11-09T05:43:17Z
2021-11-09T03:44:55Z,42.805,6.029,13.2996,4.60010,2470.343,2021-11-09T05:46:21Z
2021-11-09T03:47:58Z,42.805,6.029,13.2993,4.60011,2470.357,2021-11-09T05:49:24Z
2021-11-09T03:51:01Z,42.805,6.029,13.2995,4.60014,2470.343,2021-11-09T05:52:27Z
2021-11-09T03:54:04Z,42.805,6.029,13.3000,4.60011,2470.343,2021-11-09T05:55:30Z
2021-11-09T03:57:08Z,42.805,6.029,13.2999,4.60011,2470.343,2021-11-09T05:58:33Z
2021-11-09T04:00:11Z,42.805,6.029,13.2995,4.60011,2470.334,2021-11-09T06:01:36Z
2021-11-09T04:03:14Z,42.805,6.029,13.2994,4.60012,2470.32,2021-11-09T06:04:39Z
2021-11-09T04:06:17Z,42.805,6.029,13.2998,4.60011,2470.357,2021-11-09T06:07:42Z
2021-11-09T04:09:20Z,42.805,6.029,13.2993,4.60011,2470.343,2021-11-09T06:10:46Z
2021-11-09T04:12:23Z,42.805,6.029,13.2998,4.60011,2470.366,2021-11-09T06:13:49Z
2021-11-09T04:15:26Z,42.805,6.029,13.2998,4.60014,2470.357,2021-11-09T06:16:52Z
2021-11-09T04:18:29Z,42.805,6.029,13.2995,4.60013,2470.343,2021-11-09T06:19:55Z
2021-11-09T04:21:32Z,42.805,6.029,13.2996,4.60016,2470.366,2021-11-09T06:22:58Z
2021-11-09T04:24:36Z,42.805,6.029,13.2993,4.60011,2470.343,2021-11-09T06:26:01Z
2021-11-09T04:27:39Z,42.805,6.029,13.2996,4.60010,2470.343,2021-11-09T06:29:04Z
2021-11-09T04:30:42Z,42.805,6.029,13.2991,4.60011,2470.366,2021-11-09T06:32:07Z
2021-11-09T04:33:45Z,42.805,6.029,13.2993,4.60010,2470.357,2021-11-09T06:35:10Z
2021-11-09T04:36:48Z,42.805,6.029,13.2991,4.60011,2470.343,2021-11-09T06:38:14Z
2021-11-09T04:39:51Z,42.805,6.029,13.2991,4.60011,2470.357,2021-11-09T06:41:17Z
2021-11-09T04:42:54Z,42.805,6.029,13.2993,4.60011,2470.343,2021-11-09T06:44:20Z
2021-11-09T04:45:57Z,42.805,6.029,13.2996,4.60011,2470.366,2021-11-09T06:47:23Z
2021-11-09T04:49:01Z,42.805,6.029,13.3000,4.60010,2470.357,2021-11-09T06:50:26Z
2021-11-09T04:52:04Z,42.805,6.029,13.2993,4.60011,2470.343,2021-11-09T06:53:29Z
2021-11-09T04:55:07Z,42.805,6.029,13.2993,4.60010,2470.357,2021-11-09T06:56:32Z
2021-11-09T04:58:10Z,42.805,6.029,13.2996,4.60011,2470.38,2021-11-09T06:59:35Z
2021-11-09T05:01:13Z,42.805,6.029,13.2995,4.60011,2470.357,2021-11-09T07:02:38Z
2021-11-09T05:04:16Z,42.805,6.029,13.2991,4.60011,2470.32,2021-11-09T07:05:42Z
2021-11-09T05:07:19Z,42.805,6.029,13.2992,4.60010,2470.343,2021-11-09T07:08:45Z
2021-11-09T05:10:22Z,42.805,6.029,13.2991,4.60011,2470.38,2021-11-09T07:11:48Z
2021-11-09T05:13:25Z,42.805,6.029,13.2993,4.60012,2470.366,2021-11-09T07:14:51Z
2021-11-09T05:16:29Z,42.805,6.029,13.2993,4.60011,2470.343,2021-11-09T07:17:54Z
2021-11-09T05:19:32Z,42.805,6.029,13.2995,4.60011,2470.366,2021-11-09T07:20:57Z
2021-11-09T05:22:35Z,42.805,6.029,13.2991,4.60013,2470.343,2021-11-09T07:24:00Z
2021-11-09T05:25:38Z,42.805,6.029,13.2996,4.60011,2470.343,2021-11-09T07:27:03Z
2021-11-09T05:28:41Z,42.805,6.029,13.2993,4.60011,2470.404,2021-11-09T07:30:06Z
2021-11-09T05:31:44Z,42.805,6.029,13.2996,4.60011,2470.366,2021-11-09T07:33:10Z
2021-11-09T05:34:47Z,42.805,6.029,13.2993,4.60011,2470.39,2021-11-09T07:36:13Z
2021-11-09T05:37:50Z,42.805,6.029,13.2993,4.60011,2470.38,2021-11-09T07:39:16Z
2021-11-09T05:40:53Z,42.805,6.029,13.2996,4.60011,2470.39,2021-11-09T07:42:19Z
2021-11-09T05:43:57Z,42.805,6.029,13.2990,4.60014,2470.39,2021-11-09T07:45:22Z
2021-11-09T05:47:00Z,42.805,6.029,13.2992,4.60014,2470.39,2021-11-09T07:48:25Z
2021-11-09T05:50:03Z,42.805,6.029,13.2998,4.60016,2470.404,2021-11-09T07:51:28Z
2021-11-09T05:53:06Z,42.805,6.029,13.2994,4.60012,2470.404,2021-11-09T07:54:31Z
2021-11-09T05:56:09Z,42.805,6.029,13.2992,4.60013,2470.38,2021-11-09T07:57:35Z
2021-11-09T05:59:12Z,42.805,6.029,13.2991,4.60013,2470.38,2021-11-09T08:00:38Z
2021-11-09T06:02:15Z,42.805,6.029,13.2991,4.60011,2470.366,2021-11-09T08:03:41Z
2021-11-09T06:05:18Z,42.805,6.029,13.2993,4.60011,2470.366,2021-11-09T08:06:44Z
2021-11-09T06:08:22Z,42.805,6.029,13.2996,4.60019,2470.366,2021-11-09T08:09:47Z
2021-11-09T06:11:25Z,42.805,6.029,13.2996,4.60011,2470.413,2021-11-09T08:12:50Z
2021-11-09T06:14:28Z,42.805,6.029,13.2996,4.60011,2470.39,2021-11-09T08:15:53Z
2021-11-09T06:17:31Z,42.805,6.029,13.2993,4.60014,2470.39,2021-11-09T08:18:56Z
2021-11-09T06:20:34Z,42.805,6.029,13.2992,4.60012,2470.437,2021-11-09T08:21:59Z
2021-11-09T06:23:37Z,42.805,6.029,13.2992,4.60012,2470.39,2021-11-09T08:25:03Z
2021-11-09T06:26:40Z,42.805,6.029,13.2993,4.60011,2470.427,2021-11-09T08:28:06Z
2021-11-09T06:29:43Z,42.805,6.029,13.2992,4.60016,2470.413,2021-11-09T08:31:09Z
2021-11-09T06:32:46Z,42.805,6.029,13.2992,4.60020,2470.427,2021-11-09T08:34:12Z
2021-11-09T06:35:50Z,42.805,6.029,13.2996,4.60024,2470.413,2021-11-09T08:37:15Z
2021-11-09T06:38:53Z,42.805,6.029,13.2994,4.60019,2470.437,2021-11-09T08:40:18Z
2021-11-09T06:41:56Z,42.805,6.029,13.2993,4.60013,2470.413,2021-11-09T08:43:21Z
2021-11-09T06:44:59Z,42.805,6.029,13.2989,4.60015,2470.437,2021-11-09T08:46:24Z
2021-11-09T06:48:02Z,42.805,6.029,13.2996,4.60014,2470.404,2021-11-09T08:49:28Z
2021-11-09T06:51:05Z,42.805,6.029,13.2996,4.60011,2470.413,2021-11-09T08:52:31Z
2021-11-09T06:54:08Z,42.805,6.029,13.2995,4.60015,2470.45,2021-11-09T08:55:34Z
2021-11-09T06:57:11Z,42.805,6.029,13.2993,4.60012,2470.45,2021-11-09T08:58:37Z
2021-11-09T07:00:15Z,42.805,6.029,13.2992,4.60011,2470.437,2021-11-09T09:01:40Z
2021-11-09T07:03:18Z,42.805,6.029,13.2995,4.60013,2470.497,2021-11-09T09:04:43Z
2021-11-09T07:06:21Z,42.805,6.029,13.2993,4.60012,2470.46,2021-11-09T09:07:46Z
2021-11-09T07:09:24Z,42.805,6.029,13.2993,4.60013,2470.474,2021-11-09T09:10:49Z
2021-11-09T07:12:27Z,42.805,6.029,13.2994,4.60015,2470.437,2021-11-09T09:13:52Z
2021-11-09T07:15:30Z,42.805,6.029,13.2995,4.60024,2470.474,2021-11-09T09:16:56Z
2021-11-09T07:18:33Z,42.805,6.029,13.2994,4.60015,2470.437,2021-11-09T09:19:59Z
2021-11-09T07:21:36Z,42.805,6.029,13.2997,4.60011,2470.507,2021-11-09T09:23:02Z
2021-11-09T07:24:39Z,42.805,6.029,13.2997,4.60014,2470.483,2021-11-09T09:26:05Z
2021-11-09T07:27:43Z,42.805,6.029,13.3001,4.60015,2470.45,2021-11-09T09:29:08Z
2021-11-09T07:30:46Z,42.805,6.029,13.2999,4.60021,2470.483,2021-11-09T09:32:11Z
2021-11-09T07:33:49Z,42.805,6.029,13.2996,4.60013,2470.483,2021-11-09T09:35:14Z
2021-11-09T07:36:52Z,42.805,6.029,13.2993,4.60014,2470.483,2021-11-09T09:38:17Z
2021-11-09T07:39:55Z,42.805,6.029,13.3000,4.60017,2470.483,2021-11-09T09:41:21Z
2021-11-09T07:42:58Z,42.805,6.029,13.2993,4.60020,2470.507,2021-11-09T09:44:24Z
2021-11-09T07:46:01Z,42.805,6.029,13.2993,4.60015,2470.507,2021-11-09T09:47:27Z
2021-11-09T07:49:04Z,42.805,6.029,13.2993,4.60014,2470.497,2021-11-09T09:50:30Z
2021-11-09T07:52:08Z,42.805,6.029,13.2990,4.60014,2470.483,2021-11-09T09:53:33Z
2021-11-09T07:55:11Z,42.805,6.029,13.2993,4.60014,2470.507,2021-11-09T09:56:36Z
2021-11-09T07:58:14Z,42.805,6.029,13.2998,4.60016,2470.53,2021-11-09T09:59:39Z
2021-11-09T08:01:17Z,42.805,6.029,13.2996,4.60019,2470.53,2021-11-09T10:02:42Z
2021-11-09T08:04:20Z,42.805,6.029,13.2997,4.60021,2470.483,2021-11-09T10:05:46Z
2021-11-09T08:07:23Z,42.805,6.029,13.2993,4.60015,2470.53,2021-11-09T10:08:49Z
2021-11-09T08:10:26Z,42.805,6.029,13.2991,4.60021,2470.53,2021-11-09T10:11:52Z
2021-11-09T08:13:29Z,42.805,6.029,13.2996,4.60026,2470.53,2021-11-09T10:14:55Z
2021-11-09T08:16:33Z,42.805,6.029,13.2993,4.60021,2470.553,2021-11-09T10:17:58Z
2021-11-09T08:19:36Z,42.805,6.029,13.2994,4.60014,2470.483,2021-11-09T10:21:01Z
2021-11-09T08:22:39Z,42.805,6.029,13.2991,4.60018,2470.53,2021-11-09T10:24:04Z
2021-11-09T08:25:42Z,42.805,6.029,13.2992,4.60017,2470.544,2021-11-09T10:27:07Z
2021-11-09T08:28:45Z,42.805,6.029,13.2993,4.60016,2470.53,2021-11-09T10:30:11Z
2021-11-09T08:31:48Z,42.805,6.029,13.2995,4.60016,2470.553,2021-11-09T10:33:14Z
2021-11-09T08:34:51Z,42.805,6.029,13.2993,4.60015,2470.53,2021-11-09T10:36:17Z
2021-11-09T08:37:54Z,42.805,6.029,13.2993,4.60015,2470.553,2021-11-09T10:39:20Z
2021-11-09T08:40:58Z,42.805,6.029,13.2996,4.60014,2470.577,2021-11-09T10:42:23Z
2021-11-09T08:44:01Z,42.805,6.029,13.2991,4.60016,2470.53,2021-11-09T10:45:26Z
2021-11-09T08:47:04Z,42.805,6.029,13.2994,4.60016,2470.567,2021-11-09T10:48:29Z
2021-11-09T08:50:07Z,42.805,6.029,13.2991,4.60020,2470.591,2021-11-09T10:51:32Z
2021-11-09T08:53:10Z,42.805,6.029,13.2990,4.60014,2470.544,2021-11-09T10:54:36Z
2021-11-09T08:56:13Z,42.805,6.029,13.2993,4.60013,2470.567,2021-11-09T10:57:39Z
2021-11-09T08:59:16Z,42.805,6.029,13.2991,4.60013,2470.577,2021-11-09T11:00:42Z
2021-11-09T09:02:19Z,42.805,6.029,13.2993,4.60013,2470.544,2021-11-09T11:03:45Z
2021-11-09T09:05:22Z,42.805,6.029,13.2993,4.60013,2470.591,2021-11-09T11:06:48Z
2021-11-09T09:08:26Z,42.805,6.029,13.2994,4.60014,2470.591,2021-11-09T11:09:51Z
2021-11-09T09:11:29Z,42.805,6.029,13.2996,4.60012,2470.553,2021-11-09T11:12:54Z
2021-11-09T09:14:32Z,42.805,6.029,13.2994,4.60016,2470.591,2021-11-09T11:15:57Z
2021-11-09T09:17:35Z,42.805,6.029,13.2993,4.60016,2470.614,2021-11-09T11:19:01Z
2021-11-09T09:20:38Z,42.805,6.029,13.2997,4.60019,2470.6,2021-11-09T11:22:04Z
2021-11-09T09:23:41Z,42.805,6.029,13.2992,4.60017,2470.624,2021-11-09T11:25:07Z
2021-11-09T09:26:44Z,42.805,6.029,13.2989,4.60015,2470.6,2021-11-09T11:28:10Z
2021-11-09T09:29:47Z,42.805,6.029,13.2993,4.60014,2470.553,2021-11-09T11:31:13Z
2021-11-09T09:32:51Z,42.805,6.029,13.2991,4.60015,2470.591,2021-11-09T11:34:16Z
2021-11-09T09:35:54Z,42.805,6.029,13.2993,4.60018,2470.6,2021-11-09T11:37:19Z
2021-11-09T09:38:57Z,42.805,6.029,13.2993,4.60014,2470.577,2021-11-09T11:40:22Z
2021-11-09T09:42:00Z,42.805,6.029,13.2993,4.60015,2470.591,2021-11-09T11:43:25Z
2021-11-09T09:45:03Z,42.805,6.029,13.2992,4.60015,2470.567,2021-11-09T11:46:29Z
2021-11-09T09:48:06Z,42.805,6.029,13.2996,4.60016,2470.624,2021-11-09T11:49:32Z
2021-11-09T09:51:09Z,42.805,6.029,13.2994,4.60016,2470.6,2021-11-09T11:52:35Z
2021-11-09T09:54:12Z,42.805,6.029,13.2992,4.60015,2470.591,2021-11-09T11:55:38Z
2021-11-09T09:57:16Z,42.805,6.029,13.2996,4.60017,2470.6,2021-11-09T11:58:41Z
2021-11-09T10:00:19Z,42.805,6.029,13.2993,4.60015,2470.577,2021-11-09T12:01:44Z
2021-11-09T10:03:22Z,42.805,6.029,13.2993,4.60016,2470.6,2021-11-09T12:04:47Z
2021-11-09T10:06:25Z,42.805,6.029,13.2996,4.60015,2470.614,2021-11-09T12:07:50Z
2021-11-09T10:09:28Z,42.805,6.029,13.2993,4.60019,2470.6,2021-11-09T12:10:54Z
2021-11-09T10:12:31Z,42.805,6.029,13.2996,4.60017,2470.6,2021-11-09T12:13:57Z
2021-11-09T10:15:34Z,42.805,6.029,13.2994,4.60016,2470.577,2021-11-09T12:17:00Z
2021-11-09T10:18:37Z,42.805,6.029,13.2993,4.60015,2470.6,2021-11-09T12:20:03Z
2021-11-09T10:21:41Z,42.805,6.029,13.2993,4.60016,2470.6,2021-11-09T12:23:06Z
2021-11-09T10:24:44Z,42.805,6.029,13.2997,4.60017,2470.6,2021-11-09T12:26:09Z
2021-11-09T10:27:47Z,42.805,6.029,13.2991,4.60014,2470.624,2021-11-09T12:29:12Z
2021-11-09T10:30:50Z,42.805,6.029,13.2995,4.60014,2470.637,2021-11-09T12:32:15Z
2021-11-09T10:33:53Z,42.805,6.029,13.2993,4.60016,2470.614,2021-11-09T12:35:19Z
2021-11-09T10:36:56Z,42.805,6.029,13.2994,4.60016,2470.6,2021-11-09T12:38:22Z
2021-11-09T10:39:59Z,42.805,6.029,13.2996,4.60016,2470.614,2021-11-09T12:41:25Z
2021-11-09T10:43:02Z,42.805,6.029,13.2993,4.60020,2470.614,2021-11-09T12:44:28Z
2021-11-09T10:46:06Z,42.805,6.029,13.2994,4.60016,2470.614,2021-11-09T12:47:31Z
2021-11-09T10:49:09Z,42.805,6.029,13.2997,4.60015,2470.6,2021-11-09T12:50:34Z
2021-11-09T10:52:12Z,42.805,6.029,13.2996,4.60014,2470.624,2021-11-09T12:53:37Z
2021-11-09T10:55:15Z,42.805,6.029,13.2994,4.60014,2470.624,2021-11-09T12:56:40Z
2021-11-09T10:58:18Z,42.805,6.029,13.2993,4.60014,2470.591,2021-11-09T12:59:44Z
2021-11-09T11:01:21Z,42.805,6.029,13.2994,4.60013,2470.6,2021-11-09T13:02:47Z
2021-11-09T11:04:24Z,42.805,6.029,13.2993,4.60016,2470.6,2021-11-09T13:05:50Z
2021-11-09T11:07:27Z,42.805,6.029,13.2993,4.60016,2470.614,2021-11-09T13:08:53Z
2021-11-09T11:10:31Z,42.805,6.029,13.2993,4.60016,2470.577,2021-11-09T13:11:56Z
2021-11-09T11:13:34Z,42.805,6.029,13.2995,4.60016,2470.614,2021-11-09T13:14:59Z
2021-11-09T11:16:37Z,42.805,6.029,13.2991,4.60015,2470.624,2021-11-09T13:18:02Z
2021-11-09T11:19:40Z,42.805,6.029,13.2993,4.60015,2470.614,2021-11-09T13:21:05Z
2021-11-09T11:22:43Z,42.805,6.029,13.2998,4.60015,2470.661,2021-11-09T13:24:09Z
2021-11-09T11:25:46Z,42.805,6.029,13.2993,4.60015,2470.577,2021-11-09T13:27:12Z
2021-11-09T11:28:49Z,42.805,6.029,13.2993,4.60016,2470.6,2021-11-09T13:30:15Z
2021-11-09T11:31:52Z,42.805,6.029,13.2999,4.60013,2470.614,2021-11-09T13:33:18Z
2021-11-09T11:34:55Z,42.805,6.029,13.2994,4.60015,2470.624,2021-11-09T13:36:21Z
2021-11-09T11:37:59Z,42.805,6.029,13.2990,4.60014,2470.591,2021-11-09T13:39:24Z
2021-11-09T11:41:02Z,42.805,6.029,13.2995,4.60014,2470.614,2021-11-09T13:42:27Z
2021-11-09T11:44:05Z,42.805,6.029,13.2994,4.60013,2470.6,2021-11-09T13:45:30Z
2021-11-09T11:47:08Z,42.805,6.029,13.2996,4.60014,2470.624,2021-11-09T13:48:34Z
2021-11-09T11:50:11Z,42.805,6.029,13.2998,4.60016,2470.624,2021-11-09T13:51:37Z
2021-11-09T11:53:14Z,42.805,6.029,13.2998,4.60016,2470.6,2021-11-09T13:54:40Z
2021-11-09T11:56:17Z,42.805,6.029,13.2996,4.60017,2470.624,2021-11-09T13:57:43Z
2021-11-09T11:59:21Z,42.805,6.029,13.2993,4.60016,2470.614,2021-11-09T14:00:46Z
2021-11-09T12:02:24Z,42.805,6.029,13.2993,4.60014,2470.6,2021-11-09T14:03:49Z
2021-11-09T12:05:27Z,42.805,6.029,13.2996,4.60014,2470.577,2021-11-09T14:06:52Z
2021-11-09T12:08:30Z,42.805,6.029,13.2993,4.60014,2470.6,2021-11-09T14:09:55Z
2021-11-09T12:11:33Z,42.805,6.029,13.2996,4.60013,2470.6,2021-11-09T14:12:59Z
2021-11-09T12:14:36Z,42.805,6.029,13.2993,4.60014,2470.6,2021-11-09T14:16:02Z
2021-11-09T12:17:39Z,42.805,6.029,13.2994,4.60014,2470.577,2021-11-09T14:19:05Z
2021-11-09T12:20:42Z,42.805,6.029,13.2995,4.60014,2470.614,2021-11-09T14:22:08Z
2021-11-09T12:23:45Z,42.805,6.029,13.2994,4.60014,2470.577,2021-11-09T14:25:11Z
2021-11-09T12:26:49Z,42.805,6.029,13.2992,4.60013,2470.577,2021-11-09T14:28:14Z
2021-11-09T12:29:52Z,42.805,6.029,13.2992,4.60014,2470.614,2021-11-09T14:31:17Z
2021-11-09T12:32:55Z,42.805,6.029,13.2993,4.60014,2470.577,2021-11-09T14:34:20Z
2021-11-09T12:35:58Z,42.805,6.029,13.2995,4.60012,2470.577,2021-11-09T14:37:23Z
2021-11-09T12:39:01Z,42.805,6.029,13.2996,4.60012,2470.577,2021-11-09T14:40:27Z
2021-11-09T12:42:04Z,42.805,6.029,13.2996,4.60014,2470.6,2021-11-09T14:43:30Z
2021-11-09T12:45:07Z,42.805,6.029,13.2993,4.60013,2470.567,2021-11-09T14:46:33Z
2021-11-09T12:48:10Z,42.805,6.029,13.2996,4.60011,2470.577,2021-11-09T14:49:36Z
2021-11-09T12:51:14Z,42.805,6.029,13.2992,4.60013,2470.591,2021-11-09T14:52:39Z
2021-11-09T12:54:17Z,42.805,6.029,13.2993,4.60014,2470.577,2021-11-09T14:55:42Z
2021-11-09T12:57:20Z,42.805,6.029,13.2994,4.60011,2470.577,2021-11-09T14:58:45Z
2021-11-09T13:00:23Z,42.805,6.029,13.2996,4.60014,2470.553,2021-11-09T15:01:48Z
2021-11-09T13:03:26Z,42.805,6.029,13.2993,4.60012,2470.567,2021-11-09T15:04:52Z
2021-11-09T13:06:29Z,42.805,6.029,13.2995,4.60014,2470.53,2021-11-09T15:07:55Z
2021-11-09T13:09:32Z,42.805,6.029,13.2996,4.60012,2470.553,2021-11-09T15:10:58Z
2021-11-09T13:12:35Z,42.805,6.029,13.2996,4.60013,2470.53,2021-11-09T15:14:01Z
2021-11-09T13:15:39Z,42.805,6.029,13.2993,4.60013,2470.553,2021-11-09T15:17:04Z
2021-11-09T13:18:42Z,42.805,6.029,13.2996,4.60011,2470.567,2021-11-09T15:20:07Z
2021-11-09T13:21:45Z,42.805,6.029,13.2994,4.60013,2470.577,2021-11-09T15:23:10Z
2021-11-09T13:24:48Z,42.805,6.029,13.2995,4.60012,2470.553,2021-11-09T15:26:13Z
2021-11-09T13:27:51Z,42.805,6.029,13.2991,4.60013,2470.591,2021-11-09T15:29:17Z
2021-11-09T13:30:54Z,42.805,6.029,13.2993,4.60011,2470.553,2021-11-09T15:32:20Z
2021-11-09T13:33:57Z,42.805,6.029,13.2993,4.60014,2470.544,2021-11-09T15:35:23Z
2021-11-09T13:37:00Z,42.805,6.029,13.2993,4.60013,2470.553,2021-11-09T15:38:26Z
2021-11-09T13:40:04Z,42.805,6.029,13.2993,4.60011,2470.591,2021-11-09T15:41:29Z
2021-11-09T13:43:07Z,42.805,6.029,13.2993,4.60012,2470.53,2021-11-09T15:44:32Z
2021-11-09T13:46:10Z,42.805,6.029,13.2996,4.60014,2470.544,2021-11-09T15:47:35Z
2021-11-09T13:49:13Z,42.805,6.029,13.2993,4.60011,2470.553,2021-11-09T15:50:38Z
2021-11-09T13:52:16Z,42.805,6.029,13.2993,4.60015,2470.553,2021-11-09T15:53:42Z
2021-11-09T13:55:19Z,42.805,6.029,13.2992,4.60013,2470.544,2021-11-09T15:56:45Z
2021-11-09T13:58:22Z,42.805,6.029,13.2993,4.60011,2470.53,2021-11-09T15:59:48Z
2021-11-09T14:01:25Z,42.805,6.029,13.2992,4.60011,2470.553,2021-11-09T16:02:51Z
2021-11-09T14:04:28Z,42.805,6.029,13.2994,4.60011,2470.544,2021-11-09T16:05:54Z
2021-11-09T14:07:32Z,42.805,6.029,13.2996,4.60013,2470.567,2021-11-09T16:08:57Z
2021-11-09T14:10:35Z,42.805,6.029,13.2996,4.60014,2470.544,2021-11-09T16:12:00Z
2021-11-09T14:13:38Z,42.805,6.029,13.2994,4.60011,2470.553,2021-11-09T16:15:03Z
2021-11-09T14:16:41Z,42.805,6.029,13.2992,4.60014,2470.544,2021-11-09T16:18:06Z
2021-11-09T14:19:44Z,42.805,6.029,13.2994,4.60014,2470.53,2021-11-09T16:21:10Z
2021-11-09T14:22:47Z,42.805,6.029,13.2993,4.60013,2470.544,2021-11-09T16:24:13Z
2021-11-09T14:25:50Z,42.805,6.029,13.2993,4.60013,2470.53,2021-11-09T16:27:16Z
2021-11-09T14:28:53Z,42.805,6.029,13.2995,4.60012,2470.507,2021-11-09T16:30:19Z
2021-11-09T14:31:57Z,42.805,6.029,13.2995,4.60014,2470.52,2021-11-09T16:33:22Z
2021-11-09T14:35:00Z,42.805,6.029,13.2994,4.60011,2470.567,2021-11-09T16:36:25Z
2021-11-09T14:38:03Z,42.805,6.029,13.2993,4.60013,2470.544,2021-11-09T16:39:28Z
2021-11-09T14:41:06Z,42.805,6.029,13.2991,4.60014,2470.507,2021-11-09T16:42:31Z
2021-11-09T14:44:09Z,42.805,6.029,13.2994,4.60014,2470.507,2021-11-09T16:45:35Z
2021-11-09T14:47:12Z,42.805,6.029,13.2991,4.60011,2470.53,2021-11-09T16:48:38Z
2021-11-09T14:50:15Z,42.805,6.029,13.2995,4.60014,2470.53,2021-11-09T16:51:41Z
2021-11-09T14:53:18Z,42.805,6.029,13.2990,4.60013,2470.53,2021-11-09T16:54:44Z
2021-11-09T14:56:22Z,42.805,6.029,13.2996,4.60013,2470.507,2021-11-09T16:57:47Z
2021-11-09T14:59:25Z,42.805,6.029,13.2996,4.60014,2470.52,2021-11-09T17:00:50Z
2021-11-09T15:02:28Z,42.805,6.029,13.2991,4.60013,2470.52,2021-11-09T17:03:53Z